Wind_Speed
19 11 16 41 54 54 49 46 46 47 50 53 55 57 53 50 48 46 44 45 45 43 39 36 35 35 35 35 39 44 46 44 39 37 35 32 33 31 29 31 34 36 35 34 32 32 35 37 39 42 41 37 37 38 40 44 42 39 40 42 43 45 46 49 51 50 49 46 43 39 36 35 33 30 27 25 23 22 23 24 24 23 23 22 22 22 24 27
19 14 10 33 51 55 50 47 47 48 50 53 56 56 54 52 50 49 46 44 44 44 41 39 37 35 32 30 31 35 42 45 42 38 33 29 32 30 28 30 33 34 36 36 34 33 34 37 39 40 37 35 39 40 39 40 38 38 41 43 45 47 48 50 50 47 44 40 37 34 33 32 30 27 24 23 21 21 23 23 23 22 21 20 21 22 24 26
16 15 8 25 47 55 52 48 47 48 50 52 56 55 55 54 51 51 48 44 43 43 42 40 38 35 32 28 24 26 31 38 41 37 32 29 28 26 25 28 30 33 37 38 35 33 32 31 32 33 31 32 38 40 39 37 37 41 44 45 47 48 49 49 46 41 38 35 32 32 31 30 28 24 22 21 19 20 22 22 22 22 21 20 20 21 24 26
13 14 11 17 42 55 55 51 48 48 49 51 56 55 56 56 53 53 51 47 43 42 43 40 37 36 34 29 24 22 23 28 32 30 28 27 24 21 19 20 23 27 30 28 24 24 23 23 24 25 25 27 32 35 36 36 40 45 46 46 47 47 47 44 40 35 32 30 29 29 29 28 26 22 20 19 17 19 20 21 21 22 21 19 20 21 24 26
11 12 12 11 31 52 56 53 50 49 50 50 53 56 58 57 54 54 53 52 48 44 44 42 37 34 34 31 27 25 23 24 24 22 23 23 23 21 15 13 15 18 19 17 15 15 15 18 21 22 23 25 27 30 34 38 43 45 44 45 45 44 42 38 34 30 28 28 27 27 27 26 24 21 19 17 16 17 19 20 20 21 20 19 19 21 24 26
11 14 13 12 20 42 55 56 53 52 51 50 50 55 57 53 51 54 53 53 53 48 46 45 41 35 34 34 32 30 27 24 22 21 22 23 23 20 16 14 14 15 16 18 18 18 20 23 26 27 28 29 31 35 38 42 44 43 42 42 41 39 36 32 29 26 26 25 25 25 25 25 23 20 17 16 15 16 18 19 19 19 19 18 19 21 23 26
12 15 14 14 15 28 45 55 57 54 53 52 50 53 55 51 48 53 55 52 52 49 47 49 47 41 38 37 36 34 31 28 25 22 22 24 25 23 23 22 21 20 20 21 22 24 27 29 31 33 33 35 37 40 42 42 42 40 40 39 38 34 31 27 25 24 24 24 24 24 24 24 22 19 16 14 13 15 17 18 19 18 17 17 17 19 22 25
13 15 16 16 16 19 30 43 53 56 56 55 53 52 53 52 47 49 55 54 51 48 47 50 50 45 42 40 40 39 36 34 32 28 26 25 27 27 28 29 28 27 25 24 25 27 30 32 35 37 37 39 41 42 41 40 39 38 38 36 33 29 26 24 23 23 22 23 23 23 24 23 21 18 15 13 13 14 16 17 18 18 16 15 16 18 21 24
14 14 16 18 19 19 21 29 40 50 56 57 56 54 52 53 50 48 50 53 54 50 48 49 50 48 44 42 43 44 40 37 36 35 31 29 29 29 31 32 32 30 29 28 28 29 32 34 36 37 38 40 41 39 38 37 36 36 34 32 29 26 24 23 22 22 22 22 22 22 22 22 20 16 14 12 12 13 15 17 17 17 16 15 15 17 20 24
14 14 15 17 21 22 20 21 27 38 48 54 56 56 53 52 52 49 46 47 51 53 52 50 49 49 46 44 44 45 43 40 39 39 36 33 33 33 33 34 34 33 31 30 30 30 32 33 34 35 37 39 38 37 36 35 34 33 30 28 26 24 23 22 22 22 22 22 21 21 21 20 19 15 12 11 11 12 15 16 16 16 16 15 15 16 19 23
14 14 14 15 21 24 24 22 21 25 34 43 49 53 54 53 52 52 48 45 45 49 54 53 51 49 47 46 44 44 44 42 42 42 41 39 37 36 35 36 37 35 34 33 31 30 32 34 35 36 38 38 37 37 36 34 32 30 28 26 24 23 22 22 22 22 22 22 21 20 20 19 17 14 11 10 10 11 14 16 16 15 16 15 15 16 19 22
12 13 14 14 18 22 23 25 24 22 23 27 34 41 46 49 51 51 51 49 45 44 48 52 54 53 50 48 46 45 46 44 43 44 45 43 41 38 36 36 37 37 37 35 32 33 35 37 38 38 39 38 37 36 34 32 31 29 27 25 23 22 21 22 22 22 22 21 20 20 19 18 16 14 11 9 9 11 14 16 15 14 15 15 14 15 18 22
7 10 12 14 16 18 20 22 24 24 24 24 25 29 34 38 44 46 49 50 49 46 44 44 48 51 50 50 49 48 48 47 46 45 46 45 42 39 37 37 38 39 40 36 34 37 39 40 41 39 38 37 35 33 32 30 29 27 25 23 22 21 21 21 22 22 21 21 19 19 18 18 16 14 11 9 9 10 14 16 15 13 13 14 14 15 18 21
5 7 8 11 14 15 17 19 21 22 24 25 25 25 27 28 32 36 41 45 47 47 44 42 42 42 43 46 49 50 50 49 48 46 46 47 44 40 39 37 37 39 41 41 40 42 43 43 41 37 35 33 31 31 29 28 27 25 23 22 21 20 20 21 21 22 21 20 18 17 18 17 16 14 11 9 8 10 14 15 14 12 12 13 13 15 18 20
5 4 5 6 9 12 15 17 18 19 21 24 26 27 27 27 25 26 30 35 39 41 42 42 41 39 38 40 44 47 49 50 49 47 46 48 46 42 39 37 36 38 41 42 42 43 43 42 37 33 31 30 29 28 28 27 26 24 22 21 20 20 20 20 21 22 21 19 18 17 17 16 15 14 11 9 9 11 13 15 13 11 11 12 12 14 17 18
6 4 5 4 5 9 13 16 17 18 19 20 22 25 27 28 25 24 24 27 30 32 34 36 37 38 37 37 41 44 46 48 48 47 46 46 47 45 42 39 39 39 40 41 42 42 40 37 33 30 30 29 28 28 27 26 25 24 22 20 20 20 20 21 21 21 20 18 17 16 16 16 15 13 10 9 9 11 13 13 12 11 10 11 12 14 16 17
8 6 5 4 4 6 10 13 15 18 19 18 18 20 24 27 25 23 23 23 24 27 29 32 33 35 36 37 40 42 44 45 45 47 46 44 46 47 43 41 40 40 42 43 43 41 38 34 31 29 29 28 27 27 27 26 25 23 21 20 20 20 20 21 21 21 19 17 15 15 15 15 15 13 10 8 9 11 12 12 11 10 10 11 12 14 15 16
12 9 7 5 4 6 8 10 13 15 18 19 18 18 21 25 24 23 23 22 22 23 25 28 29 29 30 32 37 41 43 43 43 44 44 44 46 47 45 43 42 42 44 45 43 40 36 32 29 28 27 26 26 26 26 25 24 22 20 20 20 20 20 21 21 19 17 15 14 14 15 15 14 12 10 8 9 10 10 10 10 10 10 11 13 14 14 15
15 12 9 7 5 6 7 8 11 13 15 18 19 19 20 22 22 23 23 23 23 23 23 24 24 25 25 26 29 33 38 41 43 44 43 42 43 45 45 44 43 43 43 42 40 36 32 29 27 26 25 25 25 26 26 25 23 22 20 19 20 20 20 20 19 18 16 14 13 13 14 14 13 11 9 8 8 9 9 9 10 10 11 12 13 14 14 15
17 14 11 9 7 7 8 9 10 11 12 15 18 19 20 21 21 21 21 21 20 20 21 20 20 21 22 23 24 26 29 34 40 43 41 39 41 43 43 42 40 39 37 36 34 31 28 26 25 24 24 25 26 26 25 24 23 21 19 18 19 19 20 20 18 16 15 13 12 12 13 13 12 11 9 7 7 7 8 9 10 10 11 12 13 14 14 14
19 16 13 11 10 9 9 10 11 11 11 13 16 19 19 19 19 19 18 18 17 16 16 16 16 16 16 17 19 21 24 27 32 36 36 36 38 38 36 35 34 32 31 30 29 26 24 23 22 23 24 25 26 26 25 23 22 20 18 17 18 19 20 19 17 15 14 12 11 12 13 13 11 10 8 6 5 6 7 8 10 10 11 12 14 14 14 14
20 17 15 14 13 12 11 11 12 13 13 14 16 18 18 18 17 16 15 16 16 16 15 14 13 14 13 13 14 16 19 21 24 27 29 30 31 31 30 30 29 28 27 26 24 22 22 22 22 23 25 26 26 25 24 22 21 19 18 16 17 19 19 17 15 14 12 11 11 12 13 12 11 9 6 4 4 5 6 8 9 10 11 13 14 14 14 14
20 18 16 16 16 15 15 14 15 16 16 16 17 18 18 18 17 16 15 14 14 14 15 14 13 13 14 14 15 15 16 17 19 21 23 25 26 27 27 27 26 24 23 22 21 21 21 22 23 24 25 26 25 24 22 21 19 18 17 16 17 19 18 16 15 12 11 10 10 11 11 11 9 6 4 4 4 4 6 8 8 10 11 13 14 13 13 14
19 17 17 18 18 18 18 17 17 17 17 17 17 18 18 18 17 17 16 15 14 13 13 14 14 14 14 14 14 15 15 16 17 18 20 21 22 23 23 23 22 21 20 20 20 21 22 23 24 25 26 25 24 22 21 19 18 17 16 16 16 18 17 16 14 12 10 9 9 10 9 8 6 4 3 4 4 5 6 7 8 9 11 12 13 13 13 13
19 17 17 19 20 20 20 20 19 18 17 17 17 18 18 17 17 17 17 16 15 14 14 14 14 14 14 13 13 13 13 14 15 16 17 18 20 20 20 20 19 19 19 20 21 22 23 25 26 26 25 23 22 20 19 18 17 16 16 16 16 17 17 15 12 11 9 8 8 8 7 5 4 4 4 5 4 5 5 6 6 8 10 11 12 12 12 13
19 18 18 19 21 21 21 21 20 19 18 18 17 17 17 17 17 17 16 15 15 16 16 15 15 15 14 13 12 13 13 13 14 15 16 17 18 19 18 18 18 18 19 21 22 23 25 26 27 26 24 21 20 18 18 17 16 16 16 16 16 16 16 14 12 10 9 8 8 7 6 4 4 4 4 4 5 5 4 4 5 7 9 10 11 12 12 13
20 19 19 19 20 21 21 21 21 20 19 19 18 17 17 16 16 16 16 15 15 16 16 15 15 15 14 13 13 13 13 14 15 15 17 18 18 18 18 18 18 19 20 22 23 25 26 27 26 24 21 19 18 17 17 16 16 15 16 17 16 15 15 14 11 10 9 8 7 7 6 5 4 4 4 4 5 4 3 3 4 6 8 10 11 12 13 14
21 21 20 20 20 21 21 21 20 20 19 18 18 17 17 17 17 16 16 16 16 16 16 16 15 14 14 14 14 14 14 14 15 16 17 18 18 18 18 18 19 20 21 22 24 26 27 26 25 22 20 18 17 16 16 16 15 15 16 17 16 14 14 13 11 10 9 8 7 7 6 6 5 5 5 5 6 5 4 4 4 6 8 10 12 13 14 15
23 23 22 22 22 22 22 21 20 19 19 18 17 17 17 18 18 18 18 18 18 17 17 17 16 16 16 16 15 14 14 15 16 17 18 19 19 19 19 19 20 21 22 24 25 26 26 24 22 20 18 17 16 16 16 15 15 15 16 16 15 14 13 12 11 11 10 9 8 7 7 6 6 5 5 6 7 7 6 5 6 7 9 11 13 14 16 17
24 25 25 25 24 23 22 21 21 20 19 18 17 16 16 17 19 20 20 20 20 19 19 19 18 18 18 17 17 16 16 16 17 18 19 19 20 19 19 20 21 22 23 25 25 24 23 21 20 18 18 17 16 16 16 15 15 15 16 16 15 13 12 11 12 12 10 9 8 8 7 7 6 4 5 7 7 8 7 6 7 8 10 12 13 15 16 17
27 27 27 27 27 25 24 23 22 21 20 18 17 16 16 17 19 21 23 23 22 22 22 21 20 20 19 19 19 19 18 17 18 18 19 20 20 20 20 20 21 22 23 24 23 22 20 18 17 17 17 17 16 16 16 15 15 15 16 15 14 13 11 10 11 12 10 9 9 8 8 7 6 4 5 7 7 8 8 8 8 10 11 13 14 15 16 17
31 29 29 30 30 28 27 25 24 23 22 20 18 16 15 16 18 21 24 24 24 24 24 23 22 21 20 20 20 20 20 19 18 19 19 20 20 20 20 21 22 22 22 22 20 19 18 17 16 16 16 16 16 16 16 15 15 15 16 15 13 12 10 9 10 10 9 8 8 9 9 8 6 5 6 8 8 9 9 9 10 10 12 13 13 15 16 17
31 32 32 32 33 32 30 28 27 25 24 22 20 18 16 17 18 21 23 24 25 25 24 24 23 22 21 21 21 21 20 19 19 19 20 20 20 20 21 21 21 21 20 20 19 17 17 16 16 15 15 16 16 16 16 15 15 16 15 14 12 11 9 8 8 9 9 8 8 9 9 8 6 6 8 9 9 9 9 9 10 11 12 13 14 15 16 18
29 33 33 34 35 35 33 31 29 27 26 23 21 19 18 18 19 20 22 24 26 26 25 24 23 22 22 22 22 22 21 20 20 20 21 21 20 20 21 21 21 19 18 18 17 16 16 15 15 15 15 15 16 16 16 16 16 15 14 13 12 10 9 8 7 8 9 9 9 9 9 8 7 7 9 9 9 9 9 9 10 11 12 13 14 16 17 19
26 32 34 34 35 36 36 34 32 30 28 25 23 22 21 20 20 20 22 25 26 26 26 25 24 23 22 23 23 23 22 21 21 21 21 21 21 20 20 21 20 18 17 17 16 15 15 14 14 15 15 16 16 16 16 16 16 15 14 13 12 10 9 9 9 9 10 10 10 10 9 9 8 8 8 8 8 8 9 10 11 11 12 13 15 17 19 21
23 30 34 35 35 36 37 36 35 32 30 27 25 24 23 22 21 20 22 25 26 27 26 25 25 24 23 23 23 24 23 23 22 22 22 21 21 21 21 21 20 18 16 16 15 14 14 14 14 15 15 15 16 16 17 16 16 15 14 13 12 11 11 11 10 9 10 11 10 9 9 9 8 7 7 7 7 8 9 10 11 12 13 14 16 18 20 22
21 27 33 35 36 36 37 37 36 34 32 29 27 26 25 23 22 22 23 25 27 28 27 26 25 25 24 24 24 24 24 23 23 22 22 21 21 21 21 21 20 17 16 15 15 14 14 15 15 15 15 15 16 17 17 16 15 14 14 13 13 12 12 12 11 9 9 10 9 8 8 7 7 6 6 7 8 9 9 10 11 13 14 15 17 19 21 23
19 24 31 35 37 37 37 37 37 36 34 32 30 28 26 25 24 23 23 25 28 28 28 27 26 26 25 25 25 25 24 24 24 23 22 21 22 23 22 21 20 17 16 15 15 15 15 16 16 15 15 16 17 18 17 15 15 14 14 15 14 13 12 12 11 10 10 9 7 7 7 6 6 6 7 8 9 10 10 11 12 13 15 17 19 21 23 25
20 22 29 34 37 39 39 38 38 37 36 34 32 30 28 27 26 25 24 25 28 29 29 28 28 27 27 27 27 26 25 25 24 23 23 23 24 24 22 21 20 17 16 16 16 15 16 17 17 16 16 17 18 17 16 15 15 15 15 16 14 13 12 11 10 10 10 9 8 7 7 6 6 7 8 9 10 11 12 13 14 15 17 19 21 24 26 28
21 22 26 31 36 39 40 40 39 38 37 36 34 32 31 29 27 26 26 26 28 30 30 29 29 28 28 28 28 27 27 26 25 24 24 25 25 25 23 22 20 18 17 16 16 16 16 17 17 16 17 18 18 17 15 14 15 16 16 16 14 12 12 11 11 11 11 10 9 8 7 7 7 8 9 10 11 12 14 15 17 18 20 22 25 27 29 30
22 22 24 28 33 37 39 40 41 40 39 38 36 34 33 31 29 28 27 27 28 30 30 30 29 29 29 29 30 29 28 27 26 26 26 27 26 25 24 23 21 19 18 17 17 17 17 18 18 18 18 19 18 16 15 15 16 17 17 16 14 12 12 12 11 11 11 10 9 9 8 8 9 10 11 12 13 14 16 18 19 21 23 25 27 28 30 31
23 23 23 25 31 34 36 39 41 41 41 39 38 36 35 33 31 29 29 28 29 30 31 31 30 30 30 30 31 31 30 29 28 28 29 28 27 26 25 24 22 20 19 19 18 18 18 18 19 19 19 19 18 17 16 16 17 17 17 15 14 13 13 12 11 12 12 11 11 10 10 11 12 12 13 13 15 16 18 20 22 24 26 27 28 30 31 33
25 23 22 24 28 31 34 37 39 40 41 41 40 38 36 35 32 31 30 30 30 32 32 32 32 31 31 31 32 32 32 31 31 30 30 29 28 27 26 25 23 22 20 20 19 19 19 19 19 19 19 19 19 18 18 18 18 18 17 15 15 14 14 13 12 13 13 13 13 13 12 13 14 15 15 16 17 19 21 23 25 27 28 29 30 31 33 35
25 23 22 23 26 29 33 35 37 39 40 40 40 39 38 36 34 33 32 31 32 33 33 33 33 32 32 32 32 33 33 32 32 32 31 30 29 27 26 25 24 23 22 21 21 20 20 20 20 20 20 20 19 19 19 19 18 18 17 16 16 16 15 15 15 14 14 15 15 15 15 16 17 17 18 19 20 22 24 26 27 28 29 30 32 33 35 37
25 24 23 23 25 29 32 34 36 37 38 38 38 38 38 37 36 34 33 32 32 33 33 33 33 33 32 32 33 34 34 34 34 33 31 31 30 28 27 26 26 25 24 23 22 21 21 22 21 21 21 21 21 21 20 20 19 19 18 17 17 17 17 17 17 16 16 17 17 17 18 19 19 20 21 22 24 25 26 28 29 29 30 32 34 35 37 38
26 25 24 24 25 28 31 33 35 37 38 38 37 37 37 37 37 36 34 33 34 34 34 34 33 33 33 33 34 35 35 35 34 33 33 32 31 30 28 28 27 27 25 24 24 23 23 23 23 22 22 22 22 22 22 21 21 20 19 19 19 19 19 18 18 18 18 19 19 20 21 21 21 22 23 25 27 28 28 29 30 31 32 34 36 38 39 41
27 27 26 25 24 27 30 33 35 37 38 38 37 36 36 37 37 36 35 35 35 35 35 34 34 34 34 34 34 35 36 36 35 35 35 34 32 31 29 29 28 28 27 26 26 25 25 25 24 23 23 23 23 23 23 23 22 21 21 21 20 20 20 20 20 20 21 22 22 23 24 24 23 24 25 26 28 30 31 32 33 34 36 37 39 40 41 43
29 29 28 26 24 26 29 32 34 36 36 36 36 36 36 36 36 36 35 35 35 36 35 35 36 36 35 34 34 35 37 37 37 37 36 35 33 31 31 30 30 29 28 28 28 27 26 26 25 24 24 25 24 24 25 24 23 23 22 22 22 22 21 21 21 21 22 24 25 25 26 26 25 27 28 29 31 32 33 34 35 36 38 39 40 42 43 44
31 31 29 27 26 26 27 29 33 34 35 36 36 35 35 35 35 36 35 35 36 36 36 37 37 36 35 35 35 36 38 39 38 38 37 36 34 33 32 32 31 31 30 29 29 28 27 28 27 25 25 26 26 26 26 25 25 24 24 24 25 24 24 23 23 23 24 25 26 26 28 27 26 28 30 31 33 34 34 35 36 37 39 40 42 43 44 45
32 32 30 29 27 26 26 27 31 34 35 36 37 37 36 36 35 35 34 35 36 37 37 38 38 37 36 36 37 38 40 40 39 39 38 36 35 35 34 33 32 32 31 30 30 29 28 29 29 26 26 27 27 27 27 27 26 25 26 27 27 27 27 27 26 26 26 26 26 27 29 29 28 30 31 32 33 33 34 35 37 39 40 42 43 44 46 47
33 32 31 30 29 27 25 26 29 33 36 37 39 39 37 36 35 34 33 34 36 38 39 39 39 37 37 37 39 40 41 40 40 40 39 37 37 36 35 34 34 33 32 31 31 30 30 30 30 28 27 29 29 28 28 29 27 28 29 29 28 29 29 29 29 29 29 29 29 29 30 30 30 31 33 33 33 34 35 36 38 40 42 43 45 46 47 49
34 33 32 31 29 28 27 26 28 33 37 39 40 40 38 37 36 34 34 35 37 39 40 39 39 38 38 39 41 41 40 40 41 42 40 39 38 37 36 36 35 34 34 32 31 31 31 31 31 30 28 30 31 29 30 29 28 31 33 31 29 30 31 31 32 32 32 31 31 31 31 31 31 32 34 35 35 36 37 39 40 42 43 45 46 47 49 51
Wind_Direction
48 70 168 186 189 188 186 183 183 183 183 181 181 181 177 176 175 172 172 172 172 169 166 167 173 182 190 199 206 214 218 219 220 222 225 228 230 236 245 249 250 253 258 263 270 277 277 275 276 277 277 276 274 275 277 282 292 299 303 305 305 306 307 310 311 311 313 315 316 316 318 320 323 327 332 336 338 343 347 350 352 354 356 358 0 2 4 6
45 58 150 187 191 191 188 185 186 185 186 185 184 185 182 182 182 178 176 173 172 172 171 171 174 177 179 184 193 205 213 214 219 223 224 232 236 240 249 251 252 254 256 259 267 276 274 273 274 274 273 271 271 276 281 282 289 299 303 304 305 307 309 311 312 313 315 316 316 317 320 322 326 331 335 340 342 347 351 353 355 356 359 1 3 4 6 9
40 51 109 184 192 193 191 187 186 185 187 187 186 187 186 186 186 183 183 180 175 173 175 177 175 172 171 170 175 189 201 208 215 222 227 236 238 241 249 252 253 252 253 256 264 270 268 268 270 271 273 272 270 274 281 284 290 299 303 306 307 308 310 311 313 315 316 316 317 319 322 325 330 333 338 342 345 351 355 356 356 359 2 5 7 8 10 12
37 48 77 172 192 195 194 192 189 187 188 189 189 189 189 190 190 189 190 189 184 180 180 180 176 174 174 171 168 175 190 202 208 216 224 228 227 232 239 237 239 242 245 250 257 261 262 264 267 273 278 277 274 276 282 288 296 302 305 307 308 309 310 312 315 316 316 317 318 321 324 328 332 335 340 343 347 355 358 357 358 1 4 8 10 12 14 15
41 53 71 137 188 196 196 196 195 192 191 192 192 192 192 193 195 195 196 197 195 190 188 188 184 179 179 177 170 169 178 186 190 197 205 208 213 220 222 217 222 227 231 237 245 254 263 272 278 285 288 289 288 286 290 296 302 306 307 308 309 310 312 315 316 316 317 318 320 323 326 330 332 335 340 344 351 359 1 360 2 3 6 11 14 15 17 17
54 59 72 107 171 194 199 200 199 198 196 195 195 194 194 197 201 200 199 201 201 198 196 196 195 189 186 185 181 176 177 182 182 185 194 201 210 219 226 232 240 241 239 241 252 263 272 282 288 291 293 296 296 296 299 302 306 307 308 309 310 312 314 315 315 316 317 319 322 325 328 330 333 336 341 346 354 3 5 5 6 7 9 13 17 19 19 19
68 63 70 97 140 182 198 203 202 202 201 200 199 197 198 202 206 205 202 201 203 204 201 200 202 200 196 194 194 192 194 204 205 199 201 206 213 225 234 241 251 257 258 258 263 270 275 282 289 291 292 294 297 301 304 305 305 306 309 312 313 314 315 314 315 315 317 320 323 326 329 331 334 337 340 347 355 6 11 11 11 11 12 16 19 21 21 20
76 68 68 87 114 154 187 201 205 206 205 205 204 203 204 207 208 207 206 205 205 207 205 203 206 206 205 203 203 205 210 222 228 224 219 216 222 230 235 242 252 260 265 269 272 276 278 283 287 288 290 293 299 304 305 304 306 308 312 313 313 314 314 314 314 314 317 321 324 327 330 332 336 337 339 346 356 9 15 15 14 13 14 18 20 21 21 19
79 73 69 80 94 118 156 186 201 207 209 208 209 208 209 211 210 207 207 209 210 209 207 206 208 208 210 209 208 211 219 229 236 237 234 229 233 236 237 243 252 261 268 273 280 284 284 284 286 288 292 297 302 304 304 306 309 312 314 313 313 313 313 313 313 315 318 321 324 327 329 333 337 336 338 345 355 9 17 17 16 14 16 19 19 20 20 18
84 78 73 78 86 94 115 149 180 199 208 211 212 213 214 214 213 211 207 209 212 213 212 211 211 211 212 213 212 215 223 232 238 242 242 239 239 242 245 247 252 262 269 274 282 289 289 289 291 293 298 301 302 303 306 310 313 314 313 312 312 312 312 312 313 316 318 321 323 325 330 333 335 334 335 343 354 8 17 18 17 14 16 19 19 20 19 18
87 84 76 77 84 88 94 108 137 168 192 205 211 214 216 217 217 216 212 210 212 214 216 218 219 218 217 216 217 220 226 234 239 242 243 244 244 246 251 252 255 261 266 272 282 290 290 293 297 298 301 302 303 305 309 313 314 314 312 311 311 311 312 313 315 317 319 322 322 325 329 333 333 331 332 339 350 6 17 19 19 16 16 20 21 21 20 18
88 87 81 78 81 88 93 96 105 124 150 176 195 204 211 214 216 218 218 217 216 215 216 220 224 226 225 224 225 227 230 235 239 242 244 246 246 249 253 255 258 261 264 271 282 288 290 295 297 298 300 301 303 307 311 314 314 313 312 310 311 311 313 315 317 319 320 322 322 324 328 332 331 327 330 335 346 5 17 19 20 17 16 21 24 23 21 18
98 91 83 79 81 88 96 98 99 102 113 130 155 178 192 202 208 214 218 220 221 220 218 218 221 225 228 230 231 233 234 236 239 242 244 246 248 251 254 257 260 262 266 273 283 288 290 294 297 297 299 301 304 309 312 313 312 312 310 309 310 312 315 317 319 321 322 322 321 322 327 331 330 327 329 333 345 5 16 19 20 20 19 23 26 25 21 19
124 99 86 81 82 87 95 102 104 100 101 108 121 141 160 176 190 202 211 217 221 223 221 218 219 224 229 232 232 234 236 237 239 241 243 245 249 252 254 260 264 264 267 272 281 287 287 291 295 296 298 302 307 311 312 312 311 309 307 307 310 312 316 319 321 322 322 320 319 321 326 331 331 329 328 331 347 6 15 18 20 23 24 25 28 26 22 20
157 115 100 93 86 86 91 99 106 107 103 103 109 119 130 141 156 175 192 204 212 218 221 221 222 225 229 232 232 233 236 237 238 240 242 243 248 253 256 262 268 270 271 273 280 286 286 289 293 295 300 305 308 310 311 311 308 306 305 306 309 313 317 320 322 323 321 318 317 321 327 332 333 331 328 333 351 6 13 16 20 26 28 29 31 28 24 23
177 153 128 122 108 95 92 95 101 108 111 110 110 113 119 125 136 151 166 180 194 204 212 217 220 223 228 231 231 231 235 237 237 239 241 242 245 252 258 263 270 274 275 276 279 284 286 288 291 296 301 305 308 309 309 308 306 304 302 304 307 312 317 321 323 322 318 316 316 321 327 333 336 335 331 336 355 7 10 13 21 31 33 35 37 31 26 28
185 179 165 147 134 113 101 98 99 103 111 117 121 119 120 126 134 144 154 165 179 193 203 211 217 221 226 230 230 231 234 236 237 237 240 241 244 250 258 264 269 273 274 276 278 281 284 287 291 295 300 304 307 308 307 306 304 301 301 302 305 310 315 321 322 319 316 313 315 321 329 336 338 337 335 341 358 5 6 12 25 37 42 44 41 32 29 33
190 190 186 172 153 134 118 109 106 106 109 116 124 128 128 132 138 143 148 158 169 183 195 203 209 213 220 226 230 232 234 236 238 238 239 242 245 250 256 263 268 271 273 274 275 277 281 285 289 295 300 304 306 307 306 304 301 299 299 302 305 308 314 320 321 317 313 312 314 322 330 336 337 338 340 349 360 3 5 14 31 44 50 49 41 32 32 36
196 195 194 189 174 156 143 128 119 118 117 117 121 127 133 137 143 148 151 156 162 170 178 185 192 196 202 212 221 227 232 234 236 237 239 243 247 250 255 262 267 269 270 270 270 274 279 284 291 297 301 304 305 305 303 300 298 296 297 302 305 308 314 320 320 314 311 311 314 324 331 334 334 335 343 355 360 360 4 19 37 49 53 48 39 32 32 34
200 199 197 194 188 174 161 150 139 133 129 126 126 128 133 138 143 149 154 160 164 168 173 176 181 188 193 199 206 215 224 229 232 234 238 244 248 251 255 260 263 263 265 266 268 273 279 286 293 298 301 303 303 302 299 296 295 294 296 301 306 310 316 320 318 312 310 310 314 324 330 331 329 328 337 352 356 355 5 22 40 50 50 45 37 32 31 29
203 202 200 195 191 184 173 162 155 151 143 136 136 138 139 141 144 147 151 155 159 163 169 172 173 181 191 197 203 210 218 224 228 232 238 244 247 249 253 256 258 260 263 266 270 276 282 290 294 297 300 300 299 298 296 293 293 293 295 301 308 313 317 319 315 311 309 309 315 324 328 328 325 324 329 343 354 357 7 24 41 49 46 40 34 30 27 24
201 202 201 196 189 183 177 169 162 159 155 149 147 150 151 152 153 154 156 158 161 165 171 175 177 180 186 194 203 209 215 221 226 231 237 241 244 247 251 254 257 261 264 268 273 279 285 290 293 296 297 297 297 296 292 290 291 293 294 301 310 314 316 316 312 309 306 307 315 322 325 325 324 325 327 343 354 360 17 31 42 46 41 36 31 26 21 16
196 198 200 199 190 182 176 172 168 164 162 161 161 163 164 165 164 165 170 174 177 178 181 186 192 195 196 199 205 210 215 221 226 232 236 240 244 247 251 254 257 260 265 270 276 281 285 289 292 294 296 296 295 292 289 288 290 292 295 302 311 314 314 312 310 307 303 303 312 319 321 321 322 327 336 346 349 7 31 40 44 43 38 33 27 21 14 9
192 195 199 200 194 186 180 176 176 175 173 173 173 173 174 175 176 177 180 185 191 195 196 198 200 205 208 209 212 216 221 226 232 237 241 244 247 250 251 254 257 261 267 272 278 282 286 289 291 293 294 294 291 288 286 286 288 292 296 303 311 312 310 309 307 304 299 298 306 314 315 316 320 328 340 342 345 10 34 43 47 42 34 28 22 16 8 2
191 195 201 201 197 192 187 183 182 184 184 184 184 183 185 185 186 189 191 194 198 201 206 208 208 211 216 219 223 227 231 234 239 244 247 248 250 251 252 254 258 263 269 275 279 283 286 288 290 292 292 289 286 284 282 283 286 290 296 304 310 309 307 306 303 299 294 293 300 306 302 303 313 323 330 334 342 6 26 39 43 36 28 22 16 10 3 358
192 196 202 202 198 194 192 190 188 189 190 193 194 194 195 196 197 200 202 204 207 208 210 213 216 218 221 225 230 234 237 240 243 245 248 250 250 251 251 254 260 266 271 276 280 284 286 289 290 290 289 286 282 279 278 280 284 290 298 305 308 306 304 303 299 292 287 285 292 296 290 292 303 309 315 327 339 357 15 28 32 26 18 14 9 3 358 355
196 198 201 202 199 195 194 195 194 193 194 196 199 201 203 205 207 210 211 213 215 216 216 218 220 223 227 231 234 237 239 241 243 244 246 248 248 248 250 254 260 267 273 278 281 285 287 288 288 287 285 282 277 275 275 277 283 291 299 305 306 304 301 300 295 286 279 277 283 284 280 284 292 296 311 328 331 341 4 16 14 10 6 4 1 356 353 353
203 202 203 202 200 198 196 196 197 198 198 200 202 205 207 209 213 217 219 220 221 222 222 223 225 227 230 234 237 239 240 240 240 242 243 245 244 245 249 254 261 267 272 277 281 284 285 286 285 283 280 277 273 271 271 276 283 292 300 304 304 301 300 298 292 281 273 271 274 272 270 279 289 297 315 326 323 328 345 349 345 348 352 354 352 350 350 350
210 207 205 203 201 201 200 199 199 201 203 204 206 210 213 214 217 219 223 225 225 227 229 229 230 231 232 236 237 238 238 238 237 238 240 241 242 245 250 256 262 267 272 277 280 281 282 282 280 278 276 272 269 266 268 275 284 292 301 303 301 300 297 294 290 282 271 265 266 264 262 274 284 295 316 321 318 319 320 318 320 331 340 343 344 345 345 345
214 212 209 207 205 204 204 204 204 205 207 209 211 215 219 221 221 221 223 226 228 229 231 231 232 234 236 237 235 231 232 234 235 236 238 239 242 246 252 258 264 270 275 278 280 280 280 279 276 274 271 267 264 263 267 275 284 294 301 301 298 297 294 291 288 284 275 262 259 258 256 265 272 285 308 311 307 306 302 305 316 325 331 334 337 339 339 339
217 216 214 211 209 209 209 211 210 210 211 213 216 220 224 227 227 225 224 225 227 229 231 232 234 237 239 240 236 230 227 229 233 236 238 240 243 249 255 261 268 273 278 280 281 281 279 277 274 271 269 265 263 264 269 277 286 295 298 298 296 293 291 290 286 285 282 265 256 255 253 258 265 276 295 298 299 297 298 306 317 322 324 325 330 333 333 332
220 219 218 216 215 214 214 216 216 215 215 217 221 225 229 233 232 230 227 226 226 229 231 233 235 238 240 240 237 232 227 227 231 235 239 241 245 252 258 264 271 277 281 282 282 282 279 276 273 269 266 264 264 267 273 280 288 294 295 293 291 289 290 289 284 284 284 271 259 256 253 256 263 272 289 297 300 299 302 309 315 318 318 319 325 329 328 328
222 221 222 221 220 219 219 219 220 220 220 221 224 228 233 237 235 233 230 226 226 229 231 233 236 239 241 240 238 233 229 228 231 235 239 242 247 254 261 267 274 280 283 283 283 281 279 276 272 268 264 263 265 270 276 283 289 291 290 288 286 286 288 287 283 284 284 277 263 256 255 258 264 275 289 297 303 306 309 311 314 314 313 317 323 326 327 329
224 223 224 225 224 223 222 222 223 223 224 225 227 231 236 240 241 240 234 227 225 228 230 232 235 238 240 240 238 234 229 228 231 234 238 242 249 256 263 269 275 281 283 284 283 280 278 275 271 268 265 266 268 273 280 285 288 287 285 282 283 286 286 280 277 281 284 280 270 262 261 262 267 276 286 296 306 312 314 314 314 313 313 319 324 327 330 331
227 225 225 227 226 226 225 225 225 225 226 227 229 234 239 243 247 245 237 228 226 228 230 232 234 236 238 238 237 234 230 229 230 234 238 243 250 258 264 271 276 280 283 283 281 278 275 273 271 269 268 270 273 278 283 286 285 282 280 279 281 285 283 275 272 276 278 277 272 265 263 265 270 275 283 297 308 313 316 316 315 315 317 321 325 328 331 332
231 227 227 228 228 228 227 226 226 226 227 228 231 235 239 244 248 247 239 231 228 229 230 232 233 236 237 236 235 234 231 230 232 235 239 244 251 258 264 270 275 279 281 281 278 275 273 273 272 271 272 275 279 283 286 285 281 278 277 278 282 284 279 274 272 273 272 272 270 265 264 266 269 273 280 295 308 313 314 315 313 312 316 323 328 330 332 333
238 230 227 228 230 231 231 229 228 228 228 230 232 235 239 244 248 248 242 234 230 231 232 233 234 236 237 236 235 234 232 231 233 236 240 245 252 258 263 268 274 277 279 278 275 272 272 273 274 275 277 280 284 287 287 281 276 275 277 280 284 283 278 272 270 267 264 267 267 263 262 264 266 273 286 302 311 313 313 312 309 309 317 326 331 332 332 331
247 234 229 228 230 232 233 233 232 231 231 232 234 237 239 243 247 248 245 237 232 232 233 234 235 236 237 236 234 232 231 232 233 236 240 245 251 256 261 267 271 275 276 274 271 269 271 274 276 277 280 284 288 288 284 278 275 276 280 283 286 284 277 269 264 259 258 261 261 257 257 262 269 283 296 307 310 312 315 315 314 316 323 329 330 329 328 327
253 239 232 230 229 231 233 235 235 234 234 234 236 238 240 243 246 248 247 241 235 233 234 235 236 237 238 237 233 231 231 232 233 236 239 244 249 254 260 264 268 271 272 270 268 268 270 274 277 279 282 286 288 286 281 276 277 280 282 284 286 283 275 267 261 257 257 259 258 254 257 265 278 291 300 306 309 311 315 318 321 325 327 327 325 324 322 321
256 248 238 232 231 231 233 234 236 237 236 236 237 239 241 243 246 247 248 245 238 234 234 235 237 238 238 237 233 230 229 230 232 235 238 242 246 252 257 261 265 267 268 267 266 267 269 273 277 279 282 285 287 283 276 274 278 282 283 284 284 278 269 263 260 259 260 259 257 257 262 273 284 293 298 302 306 310 313 317 321 323 322 320 319 318 318 319
259 256 245 236 232 232 234 235 237 238 238 238 238 239 241 242 244 247 248 246 240 236 235 235 236 237 238 237 234 230 228 229 231 233 237 240 244 249 255 259 262 264 265 265 265 266 269 272 274 277 281 285 284 278 273 274 279 282 283 283 279 271 266 261 259 260 263 263 262 262 268 276 284 289 293 298 303 308 312 314 315 316 315 315 315 316 318 319
258 258 252 242 234 233 234 236 237 238 239 239 239 240 241 242 244 246 248 247 242 236 234 234 235 236 237 237 234 231 228 229 230 232 236 239 243 248 253 257 260 261 262 263 263 265 268 270 272 276 280 283 281 274 271 276 282 284 282 278 272 268 266 264 260 260 264 266 266 268 270 275 280 284 288 295 301 306 308 309 310 311 312 313 314 316 318 320
256 259 259 249 238 233 233 235 236 237 238 239 240 241 242 243 244 246 248 248 243 237 234 234 234 235 236 236 235 232 230 230 231 233 236 239 243 247 251 256 259 260 260 261 262 264 266 268 270 274 278 281 278 271 269 276 282 284 279 272 267 266 267 266 263 262 264 266 268 270 270 271 275 281 288 295 301 304 306 307 308 309 311 313 315 317 318 320
255 260 261 254 242 234 232 234 235 236 237 237 239 241 242 243 244 245 247 247 244 239 236 234 234 235 235 235 234 233 232 232 233 234 237 240 243 247 251 256 258 259 258 259 261 263 265 267 269 271 275 277 275 269 268 274 281 281 275 267 263 265 267 268 267 265 265 264 265 266 267 270 275 282 289 296 300 303 305 306 308 309 311 314 315 316 317 318
254 258 260 256 246 236 232 233 234 235 235 235 236 239 241 242 243 244 246 246 244 240 236 235 235 236 236 236 234 233 232 233 235 237 239 241 244 247 251 255 258 258 258 258 260 263 264 266 267 269 272 275 273 269 267 271 277 278 271 264 261 263 266 268 269 269 268 265 263 263 265 272 280 287 293 298 301 304 306 307 308 309 311 312 313 314 315 316
252 256 258 256 248 240 235 234 234 234 234 233 234 236 238 240 242 243 244 244 243 239 237 236 236 236 237 236 235 234 234 235 237 239 241 243 245 248 251 255 258 258 258 258 259 262 264 265 266 268 270 272 272 269 267 269 274 275 270 263 261 262 264 267 269 269 269 267 266 266 267 273 281 289 295 300 303 305 307 307 308 308 309 311 312 313 314 314
251 254 255 256 254 247 239 234 233 233 234 233 234 235 237 240 241 243 244 244 242 240 237 237 237 237 237 237 236 236 236 237 239 241 242 244 246 249 252 255 258 259 259 258 258 260 262 264 266 267 268 270 271 268 266 267 271 273 269 263 260 261 263 266 268 268 267 267 267 269 271 275 281 287 293 298 302 304 306 307 307 308 309 310 311 311 312 312
249 251 253 256 256 250 244 239 235 235 235 234 234 235 237 240 241 242 243 243 242 240 238 238 238 238 239 239 239 238 238 238 239 241 243 244 247 250 253 256 258 259 259 257 257 258 261 264 266 267 268 269 269 267 265 265 268 271 269 264 260 259 262 265 268 268 267 267 268 270 273 277 283 288 293 296 300 302 304 305 306 307 308 309 309 309 310 310
248 251 252 254 256 255 253 247 239 236 235 234 234 235 236 238 239 240 241 241 242 240 239 240 240 239 240 241 240 240 240 239 239 241 243 245 247 250 253 256 258 259 259 258 258 259 261 263 266 266 267 268 268 267 265 264 266 268 269 265 261 259 261 264 267 268 268 268 270 272 275 278 283 288 292 295 298 300 302 303 304 305 306 306 307 308 308 309
247 249 251 253 256 259 260 255 244 237 235 234 234 234 234 236 238 239 240 242 243 242 241 241 242 241 241 241 241 241 240 239 240 242 243 245 248 251 254 256 258 259 259 259 259 260 260 262 265 265 266 267 268 267 266 263 264 267 268 265 262 260 261 264 267 268 270 272 273 274 276 279 282 286 289 292 294 297 298 300 301 302 303 304 305 306 307 308
245 248 250 252 255 259 261 257 248 240 236 234 235 235 236 236 238 239 241 242 243 243 242 242 243 243 243 244 243 242 242 241 242 243 244 245 248 251 254 256 258 260 260 260 260 260 259 261 264 265 265 267 267 267 266 264 263 265 265 264 264 263 263 264 267 269 271 274 274 274 276 279 281 283 286 288 290 292 295 297 298 299 301 302 304 305 306 307
243 247 249 250 254 257 259 258 251 242 236 235 235 237 237 238 238 238 240 241 242 243 243 243 245 246 246 246 245 244 243 243 242 243 244 246 248 252 254 257 259 261 261 261 261 261 261 262 264 265 265 266 268 267 266 266 265 264 263 264 265 265 264 266 268 270 272 273 274 275 276 278 280 282 283 285 287 289 292 294 296 298 300 302 303 305 306 307
Height
10752 10750 10750 10751 10753 10755 10758 10760 10762 10765 10768 10770 10773 10775 10776 10779 10781 10783 10784 10787 10790 10792 10794 10797 10799 10801 10804 10805 10807 10808 10810 10812 10813 10814 10815 10816 10817 10818 10819 10821 10822 10824 10825 10825 10826 10826 10826 10825 10826 10826 10825 10825 10825 10825 10825 10824 10823 10822 10820 10819 10817 10815 10814 10812 10809 10806 10802 10799 10795 10792 10789 10787 10784 10780 10778 10775 10773 10771 10768 10766 10763 10760 10757 10755 10752 10749 10746 10743
10753 10752 10751 10751 10753 10755 10758 10760 10763 10765 10768 10771 10773 10775 10777 10779 10781 10783 10785 10788 10790 10792 10795 10797 10799 10801 10804 10805 10807 10808 10809 10812 10814 10814 10816 10816 10817 10819 10820 10821 10822 10824 10825 10825 10825 10826 10826 10826 10826 10825 10825 10824 10823 10824 10825 10824 10823 10822 10820 10818 10816 10814 10812 10809 10806 10803 10800 10797 10794 10791 10788 10785 10783 10780 10777 10775 10773 10770 10768 10765 10763 10760 10758 10755 10753 10750 10747 10744
10755 10753 10752 10751 10753 10755 10757 10760 10762 10765 10768 10771 10774 10776 10778 10780 10782 10784 10786 10788 10790 10793 10795 10797 10799 10801 10803 10805 10806 10807 10809 10811 10813 10815 10815 10816 10817 10819 10819 10821 10822 10823 10824 10824 10825 10825 10826 10825 10825 10825 10824 10823 10822 10823 10823 10822 10822 10821 10819 10816 10814 10812 10810 10807 10804 10801 10798 10795 10792 10790 10787 10784 10782 10779 10777 10775 10773 10770 10768 10766 10763 10760 10758 10755 10753 10751 10748 10745
10756 10755 10753 10751 10752 10754 10756 10759 10762 10765 10767 10770 10773 10776 10778 10780 10782 10784 10786 10788 10791 10793 10795 10797 10799 10801 10802 10804 10805 10807 10809 10810 10812 10814 10815 10816 10817 10819 10820 10820 10821 10822 10823 10824 10824 10825 10825 10824 10825 10824 10823 10822 10821 10822 10822 10822 10821 10819 10817 10814 10812 10810 10807 10804 10801 10798 10796 10793 10791 10789 10786 10784 10781 10779 10777 10775 10773 10770 10768 10766 10763 10760 10758 10756 10754 10751 10749 10746
10757 10755 10753 10752 10752 10753 10755 10758 10761 10764 10767 10770 10773 10775 10778 10780 10783 10784 10786 10789 10791 10794 10796 10797 10799 10801 10802 10804 10805 10807 10809 10810 10812 10813 10814 10816 10817 10819 10820 10820 10821 10822 10822 10823 10824 10823 10823 10823 10824 10823 10822 10821 10821 10821 10822 10821 10819 10817 10814 10812 10810 10808 10805 10802 10799 10797 10794 10792 10790 10788 10785 10783 10781 10778 10776 10775 10773 10771 10768 10766 10763 10761 10758 10756 10754 10752 10750 10747
10758 10756 10754 10752 10751 10752 10754 10757 10760 10763 10765 10768 10771 10774 10777 10780 10783 10784 10786 10789 10792 10794 10796 10797 10799 10801 10802 10804 10805 10807 10809 10810 10812 10813 10815 10816 10817 10818 10819 10820 10821 10821 10822 10822 10822 10822 10822 10822 10822 10821 10821 10821 10821 10821 10820 10818 10816 10814 10812 10810 10808 10805 10803 10800 10798 10795 10793 10791 10789 10787 10785 10782 10780 10778 10776 10774 10773 10771 10769 10766 10764 10761 10759 10757 10755 10753 10750 10748
10759 10757 10755 10753 10752 10752 10753 10756 10758 10761 10764 10767 10770 10773 10776 10779 10781 10783 10786 10789 10791 10793 10795 10797 10799 10801 10802 10804 10805 10806 10808 10809 10811 10813 10815 10816 10817 10818 10818 10819 10820 10820 10821 10821 10821 10821 10821 10821 10820 10820 10820 10820 10819 10819 10817 10816 10814 10812 10810 10808 10806 10803 10801 10799 10797 10795 10793 10790 10788 10786 10784 10782 10780 10778 10776 10774 10773 10771 10769 10766 10764 10762 10759 10757 10756 10754 10751 10749
10760 10759 10757 10755 10753 10752 10753 10754 10757 10760 10762 10765 10768 10771 10774 10777 10779 10783 10785 10788 10790 10792 10795 10797 10799 10801 10802 10804 10805 10806 10807 10808 10810 10812 10814 10816 10817 10818 10818 10818 10819 10819 10820 10820 10820 10820 10820 10820 10819 10819 10819 10818 10818 10817 10815 10813 10811 10809 10808 10806 10804 10801 10799 10797 10796 10794 10792 10790 10788 10786 10783 10781 10779 10777 10775 10774 10772 10770 10768 10766 10764 10762 10760 10758 10756 10754 10752 10750
10762 10761 10759 10757 10755 10754 10754 10754 10755 10758 10761 10764 10767 10769 10772 10775 10778 10782 10785 10788 10789 10791 10794 10796 10799 10801 10802 10803 10805 10806 10807 10808 10809 10811 10813 10815 10816 10817 10817 10818 10818 10818 10819 10819 10820 10820 10819 10819 10819 10818 10818 10817 10816 10814 10813 10811 10809 10807 10806 10804 10802 10800 10798 10796 10795 10793 10791 10789 10787 10785 10783 10781 10778 10777 10775 10773 10772 10770 10768 10766 10765 10763 10761 10759 10757 10755 10753 10751
10763 10762 10762 10760 10758 10756 10755 10755 10755 10756 10759 10762 10765 10768 10770 10773 10777 10781 10784 10787 10789 10791 10793 10796 10798 10800 10801 10803 10805 10806 10807 10807 10808 10810 10812 10814 10815 10816 10817 10817 10818 10817 10818 10818 10819 10819 10819 10818 10817 10817 10816 10815 10814 10812 10811 10809 10807 10806 10804 10802 10800 10799 10797 10795 10794 10792 10790 10788 10787 10785 10782 10780 10778 10776 10774 10773 10771 10770 10768 10766 10765 10763 10761 10759 10758 10756 10754 10752
10765 10764 10764 10763 10761 10759 10758 10757 10757 10757 10758 10760 10763 10766 10768 10771 10775 10779 10782 10786 10788 10791 10793 10795 10797 10799 10800 10802 10804 10806 10806 10807 10808 10809 10810 10812 10814 10815 10816 10816 10817 10817 10817 10818 10818 10817 10817 10816 10816 10815 10814 10814 10812 10811 10809 10807 10805 10804 10802 10801 10799 10797 10796 10794 10793 10791 10789 10788 10786 10784 10782 10780 10777 10776 10774 10772 10771 10770 10768 10767 10765 10763 10761 10760 10758 10757 10755 10753
10766 10766 10766 10765 10763 10761 10761 10760 10759 10759 10759 10760 10761 10763 10766 10769 10773 10777 10780 10784 10787 10791 10793 10795 10796 10798 10800 10802 10804 10805 10805 10806 10807 10808 10810 10811 10813 10814 10814 10815 10816 10816 10816 10816 10816 10816 10816 10815 10814 10814 10813 10812 10810 10809 10807 10805 10803 10802 10801 10799 10798 10796 10795 10793 10792 10790 10788 10787 10785 10783 10781 10779 10777 10775 10773 10772 10771 10770 10768 10767 10765 10764 10762 10760 10759 10757 10755 10753
10767 10767 10767 10766 10765 10765 10764 10763 10763 10762 10761 10760 10761 10762 10764 10768 10771 10775 10778 10782 10786 10789 10792 10794 10796 10798 10799 10801 10803 10804 10805 10806 10807 10808 10809 10810 10811 10813 10814 10814 10815 10815 10815 10815 10815 10815 10814 10814 10813 10812 10811 10810 10808 10807 10805 10803 10802 10801 10800 10798 10797 10795 10794 10792 10791 10789 10787 10785 10784 10782 10780 10778 10776 10774 10773 10772 10771 10770 10768 10767 10765 10764 10762 10760 10759 10757 10756 10754
10768 10768 10768 10768 10768 10767 10766 10766 10765 10764 10763 10762 10762 10763 10765 10767 10770 10774 10777 10781 10785 10788 10791 10794 10796 10797 10799 10800 10802 10803 10804 10805 10806 10808 10808 10809 10810 10812 10813 10813 10814 10814 10814 10814 10814 10813 10813 10813 10812 10811 10810 10808 10806 10805 10803 10801 10801 10800 10799 10797 10796 10794 10793 10791 10789 10788 10786 10784 10783 10781 10779 10778 10776 10774 10773 10772 10771 10770 10768 10767 10765 10764 10762 10761 10759 10758 10756 10754
10769 10769 10770 10770 10770 10770 10768 10768 10767 10767 10766 10765 10765 10765 10766 10768 10771 10774 10777 10780 10784 10787 10790 10792 10795 10797 10798 10799 10801 10802 10803 10804 10806 10807 10808 10809 10810 10811 10812 10813 10813 10813 10813 10813 10813 10812 10812 10812 10811 10810 10808 10807 10805 10803 10801 10800 10800 10799 10798 10796 10795 10793 10792 10790 10789 10787 10785 10783 10782 10780 10779 10777 10775 10774 10773 10772 10771 10770 10768 10767 10766 10764 10762 10761 10760 10758 10757 10755
10770 10770 10771 10771 10771 10771 10770 10770 10769 10769 10768 10768 10768 10769 10769 10770 10772 10775 10778 10780 10783 10786 10788 10791 10793 10796 10798 10799 10800 10802 10803 10804 10805 10806 10808 10809 10810 10811 10812 10812 10812 10812 10812 10812 10812 10812 10811 10811 10810 10809 10807 10805 10803 10802 10800 10800 10799 10798 10797 10795 10794 10792 10791 10789 10788 10786 10784 10782 10781 10779 10778 10777 10775 10774 10772 10772 10771 10769 10768 10767 10766 10764 10763 10761 10760 10759 10757 10755
10770 10771 10771 10772 10772 10772 10772 10771 10771 10771 10770 10771 10771 10772 10772 10772 10775 10777 10779 10781 10784 10786 10788 10791 10793 10795 10797 10798 10800 10801 10802 10803 10805 10806 10807 10809 10810 10811 10811 10812 10812 10811 10811 10811 10811 10811 10810 10809 10808 10807 10805 10804 10802 10800 10800 10799 10798 10797 10795 10794 10792 10791 10790 10788 10787 10785 10783 10782 10780 10779 10777 10776 10775 10773 10772 10771 10770 10769 10768 10767 10765 10764 10763 10762 10760 10759 10757 10755
10770 10771 10772 10772 10772 10773 10773 10773 10773 10773 10773 10773 10773 10774 10774 10775 10777 10780 10781 10783 10785 10788 10790 10791 10793 10795 10796 10798 10799 10800 10801 10803 10804 10805 10807 10809 10810 10810 10811 10811 10811 10810 10810 10810 10810 10809 10809 10808 10807 10805 10804 10802 10800 10799 10799 10798 10797 10796 10794 10793 10791 10790 10789 10787 10786 10784 10782 10781 10779 10778 10777 10775 10774 10773 10772 10771 10770 10769 10768 10767 10765 10764 10763 10762 10760 10759 10757 10756
10770 10771 10772 10772 10773 10774 10774 10774 10775 10775 10775 10775 10775 10776 10776 10778 10779 10781 10783 10785 10786 10788 10790 10792 10793 10794 10796 10797 10799 10799 10801 10802 10803 10805 10807 10809 10809 10810 10810 10810 10810 10809 10809 10808 10808 10808 10807 10806 10805 10803 10802 10800 10799 10798 10798 10797 10796 10795 10793 10792 10790 10789 10788 10786 10785 10783 10781 10780 10779 10778 10776 10775 10774 10773 10772 10771 10770 10769 10768 10766 10765 10764 10763 10762 10760 10759 10757 10756
10769 10770 10771 10772 10773 10774 10775 10775 10776 10776 10777 10777 10777 10778 10778 10780 10781 10783 10784 10786 10787 10789 10790 10792 10793 10795 10796 10797 10798 10799 10800 10801 10803 10805 10807 10807 10808 10808 10809 10809 10808 10808 10807 10807 10807 10806 10805 10804 10803 10801 10800 10799 10798 10798 10797 10796 10795 10794 10792 10791 10789 10788 10786 10785 10784 10782 10780 10779 10778 10777 10776 10775 10774 10773 10772 10771 10770 10768 10767 10766 10765 10764 10763 10762 10760 10759 10758 10756
10768 10769 10771 10772 10773 10774 10775 10775 10776 10777 10777 10778 10778 10779 10780 10781 10782 10784 10785 10787 10788 10790 10791 10792 10793 10795 10796 10797 10797 10798 10799 10801 10802 10804 10805 10806 10806 10807 10807 10807 10807 10806 10806 10805 10805 10804 10803 10802 10801 10800 10799 10798 10797 10796 10795 10794 10793 10792 10791 10790 10788 10787 10785 10784 10783 10781 10780 10778 10777 10776 10775 10774 10773 10772 10772 10770 10769 10768 10767 10767 10765 10764 10763 10762 10761 10759 10758 10757
10767 10769 10770 10771 10772 10773 10774 10775 10776 10777 10778 10779 10780 10781 10781 10782 10784 10785 10786 10788 10789 10790 10791 10793 10793 10794 10795 10796 10797 10798 10799 10800 10801 10803 10804 10804 10805 10806 10806 10806 10805 10805 10804 10803 10803 10802 10801 10800 10799 10799 10798 10797 10796 10795 10794 10793 10792 10791 10790 10789 10787 10786 10784 10783 10782 10780 10779 10778 10777 10776 10775 10774 10773 10772 10771 10770 10769 10768 10768 10767 10766 10765 10763 10762 10761 10759 10758 10757
10767 10768 10769 10770 10772 10773 10774 10775 10776 10777 10778 10779 10780 10781 10782 10783 10785 10786 10787 10789 10789 10790 10791 10792 10793 10794 10795 10795 10796 10797 10798 10799 10800 10801 10802 10803 10804 10804 10804 10804 10803 10803 10802 10801 10800 10800 10799 10799 10798 10797 10797 10796 10795 10793 10792 10791 10791 10790 10789 10788 10786 10785 10783 10782 10781 10780 10778 10777 10777 10776 10775 10774 10773 10772 10771 10770 10769 10768 10768 10767 10766 10765 10764 10762 10761 10760 10758 10757
10766 10767 10768 10769 10771 10772 10773 10774 10775 10776 10777 10779 10780 10781 10782 10784 10785 10786 10787 10788 10789 10790 10791 10792 10793 10794 10794 10795 10796 10797 10798 10799 10799 10800 10801 10802 10802 10802 10802 10802 10801 10801 10800 10799 10799 10798 10798 10797 10797 10796 10795 10794 10793 10792 10791 10790 10789 10789 10788 10787 10785 10784 10782 10781 10780 10779 10778 10777 10776 10776 10775 10774 10773 10772 10771 10770 10769 10768 10768 10767 10766 10765 10764 10762 10761 10760 10758 10757
10765 10767 10768 10769 10770 10771 10772 10773 10775 10776 10777 10778 10780 10781 10782 10783 10785 10785 10786 10787 10788 10789 10791 10791 10792 10793 10794 10794 10795 10796 10796 10797 10798 10799 10799 10800 10800 10800 10800 10800 10800 10799 10799 10798 10798 10797 10797 10796 10795 10795 10794 10793 10792 10791 10790 10789 10788 10787 10787 10786 10784 10783 10781 10780 10779 10778 10777 10777 10776 10775 10775 10774 10773 10772 10771 10770 10769 10768 10768 10767 10766 10765 10764 10763 10761 10760 10759 10757
10765 10766 10767 10768 10769 10770 10771 10772 10774 10775 10777 10778 10779 10781 10782 10783 10784 10785 10786 10787 10788 10789 10790 10791 10791 10792 10793 10793 10794 10794 10795 10796 10796 10797 10798 10798 10799 10799 10799 10799 10799 10798 10798 10797 10797 10796 10795 10795 10794 10793 10792 10791 10790 10789 10789 10788 10787 10786 10786 10784 10783 10782 10780 10779 10778 10777 10777 10776 10776 10775 10774 10773 10772 10772 10771 10770 10769 10768 10767 10767 10766 10765 10764 10763 10761 10760 10759 10757
10765 10766 10767 10768 10769 10770 10771 10772 10773 10774 10776 10777 10778 10780 10781 10782 10783 10784 10785 10786 10787 10788 10789 10789 10790 10791 10791 10792 10792 10793 10794 10794 10795 10796 10797 10797 10798 10798 10798 10798 10798 10797 10797 10796 10795 10795 10794 10793 10792 10791 10790 10790 10789 10788 10787 10787 10786 10785 10784 10783 10782 10780 10779 10778 10778 10777 10776 10776 10775 10775 10774 10773 10772 10772 10771 10770 10769 10768 10767 10767 10766 10765 10764 10762 10761 10760 10758 10757
10763 10765 10766 10767 10769 10769 10770 10771 10772 10773 10774 10776 10777 10779 10780 10781 10782 10783 10784 10785 10786 10786 10787 10788 10789 10790 10790 10791 10791 10792 10793 10793 10794 10795 10796 10796 10797 10797 10797 10797 10797 10796 10796 10795 10794 10793 10792 10791 10790 10789 10789 10788 10788 10787 10786 10786 10785 10784 10783 10782 10780 10779 10778 10777 10777 10776 10776 10775 10775 10774 10773 10773 10772 10771 10770 10769 10768 10768 10767 10766 10765 10764 10763 10762 10761 10759 10758 10757
10762 10764 10765 10766 10767 10768 10769 10770 10771 10772 10773 10775 10776 10777 10779 10780 10781 10782 10783 10784 10785 10785 10786 10787 10788 10788 10789 10790 10790 10791 10792 10792 10793 10794 10795 10795 10796 10796 10796 10796 10796 10795 10795 10794 10793 10792 10791 10790 10789 10788 10787 10787 10786 10786 10785 10784 10784 10783 10782 10780 10779 10778 10777 10777 10776 10776 10775 10775 10774 10774 10773 10772 10772 10771 10770 10769 10768 10767 10767 10766 10765 10764 10763 10762 10760 10759 10758 10756
10761 10762 10764 10765 10766 10767 10768 10769 10770 10771 10773 10774 10775 10777 10778 10779 10780 10781 10782 10783 10784 10784 10785 10786 10786 10787 10788 10789 10789 10790 10790 10791 10792 10793 10793 10794 10794 10795 10795 10795 10795 10794 10793 10792 10791 10790 10789 10788 10787 10786 10786 10785 10785 10784 10784 10783 10783 10782 10780 10779 10778 10777 10776 10776 10776 10775 10774 10774 10773 10773 10773 10772 10771 10771 10770 10769 10768 10767 10767 10766 10765 10764 10762 10761 10760 10759 10757 10756
10759 10761 10762 10763 10765 10766 10767 10768 10769 10770 10772 10773 10774 10776 10777 10778 10779 10779 10780 10781 10782 10783 10784 10785 10785 10786 10787 10787 10788 10788 10789 10790 10790 10791 10792 10793 10793 10794 10794 10793 10793 10793 10792 10790 10789 10788 10787 10786 10785 10785 10784 10784 10783 10783 10783 10782 10781 10780 10779 10778 10777 10776 10776 10776 10775 10774 10773 10773 10773 10772 10772 10772 10771 10770 10770 10769 10768 10767 10766 10765 10764 10763 10762 10761 10759 10758 10757 10755
10757 10759 10760 10762 10763 10764 10766 10767 10768 10769 10771 10772 10773 10775 10776 10777 10777 10778 10778 10779 10781 10781 10782 10783 10784 10785 10785 10786 10787 10787 10788 10788 10789 10790 10791 10792 10792 10792 10792 10792 10792 10791 10790 10789 10787 10786 10785 10785 10784 10783 10783 10783 10782 10782 10781 10781 10780 10779 10778 10777 10776 10776 10775 10775 10774 10773 10772 10772 10772 10772 10771 10771 10770 10770 10769 10768 10767 10767 10766 10765 10764 10763 10762 10760 10759 10758 10756 10755
10754 10756 10758 10759 10761 10762 10763 10765 10767 10768 10769 10771 10772 10773 10775 10775 10775 10776 10777 10778 10779 10779 10780 10781 10782 10783 10784 10784 10785 10786 10786 10787 10788 10789 10790 10790 10791 10791 10791 10790 10790 10789 10788 10787 10786 10785 10784 10783 10783 10782 10782 10781 10781 10781 10780 10780 10779 10778 10777 10776 10775 10775 10775 10774 10773 10772 10772 10771 10771 10771 10770 10770 10770 10769 10768 10768 10767 10766 10765 10764 10763 10762 10761 10760 10758 10757 10756 10754
10751 10753 10755 10757 10759 10760 10761 10763 10765 10766 10768 10769 10771 10772 10773 10773 10773 10774 10775 10776 10776 10777 10778 10779 10780 10781 10782 10782 10783 10784 10785 10786 10786 10787 10788 10788 10789 10789 10789 10788 10788 10787 10786 10785 10784 10783 10782 10782 10781 10781 10781 10780 10780 10780 10779 10778 10777 10776 10776 10775 10775 10774 10774 10773 10773 10772 10771 10771 10770 10770 10769 10769 10769 10768 10768 10767 10766 10765 10764 10763 10762 10761 10760 10759 10757 10756 10755 10753
10749 10750 10752 10754 10756 10758 10759 10761 10762 10764 10766 10767 10769 10770 10770 10771 10772 10772 10773 10774 10775 10775 10776 10777 10778 10779 10780 10780 10781 10782 10783 10783 10784 10785 10786 10787 10787 10787 10787 10786 10786 10785 10785 10784 10783 10782 10781 10781 10780 10780 10780 10779 10779 10778 10778 10777 10776 10775 10775 10774 10774 10773 10773 10772 10772 10771 10770 10770 10769 10769 10768 10768 10768 10767 10767 10766 10765 10765 10764 10763 10762 10760 10759 10758 10756 10755 10753 10752
10746 10747 10749 10751 10753 10755 10756 10758 10760 10762 10763 10765 10767 10767 10768 10769 10770 10770 10771 10772 10772 10773 10774 10775 10776 10777 10777 10778 10779 10780 10781 10782 10783 10783 10784 10785 10785 10785 10785 10785 10784 10784 10783 10782 10781 10781 10780 10779 10779 10779 10779 10778 10778 10777 10777 10776 10775 10774 10774 10773 10773 10772 10772 10771 10771 10770 10769 10769 10768 10768 10768 10767 10767 10767 10766 10765 10765 10764 10763 10762 10761 10760 10758 10757 10755 10754 10752 10751
10743 10744 10746 10748 10750 10752 10754 10755 10757 10759 10761 10763 10764 10765 10766 10767 10767 10768 10769 10770 10770 10771 10772 10773 10774 10774 10775 10776 10777 10778 10779 10780 10780 10781 10782 10783 10783 10783 10783 10783 10782 10782 10781 10780 10780 10779 10779 10778 10778 10778 10777 10777 10777 10776 10775 10774 10774 10773 10772 10772 10772 10771 10771 10770 10769 10769 10769 10768 10767 10767 10767 10766 10766 10766 10765 10764 10764 10763 10762 10761 10760 10758 10757 10755 10754 10753 10751 10750
10741 10742 10743 10745 10747 10749 10751 10752 10754 10756 10758 10760 10761 10762 10763 10764 10765 10766 10766 10767 10768 10769 10770 10771 10771 10772 10773 10774 10775 10776 10777 10778 10778 10779 10780 10781 10781 10781 10781 10781 10780 10780 10779 10779 10778 10778 10777 10777 10776 10776 10776 10776 10775 10774 10774 10773 10772 10772 10771 10771 10770 10770 10769 10769 10768 10768 10768 10767 10767 10766 10766 10766 10765 10765 10764 10764 10763 10762 10761 10760 10758 10757 10755 10754 10753 10751 10750 10748
10738 10739 10740 10741 10743 10745 10747 10749 10751 10753 10755 10756 10758 10759 10761 10761 10762 10763 10764 10765 10765 10766 10767 10768 10769 10770 10771 10772 10773 10774 10775 10775 10776 10777 10778 10778 10778 10778 10779 10779 10778 10778 10777 10777 10777 10776 10776 10775 10775 10775 10775 10774 10774 10773 10772 10772 10771 10770 10770 10769 10769 10768 10768 10767 10767 10767 10767 10766 10766 10766 10765 10765 10764 10764 10763 10762 10762 10761 10759 10758 10757 10755 10754 10753 10752 10750 10749 10747
10736 10736 10736 10738 10739 10741 10744 10746 10747 10749 10751 10753 10755 10756 10757 10759 10760 10760 10761 10762 10763 10764 10765 10766 10767 10768 10769 10770 10770 10771 10772 10773 10774 10775 10775 10776 10776 10776 10776 10776 10776 10776 10775 10775 10775 10775 10774 10774 10773 10773 10773 10773 10772 10772 10771 10771 10770 10769 10769 10768 10768 10767 10767 10766 10766 10766 10766 10765 10765 10765 10764 10764 10763 10763 10762 10761 10760 10759 10758 10757 10755 10754 10753 10752 10750 10749 10747 10745
10733 10733 10734 10735 10736 10738 10740 10742 10744 10746 10748 10749 10751 10753 10754 10756 10757 10758 10759 10760 10760 10761 10762 10763 10764 10765 10766 10767 10768 10769 10770 10771 10771 10772 10773 10773 10773 10774 10774 10774 10774 10774 10773 10773 10773 10773 10773 10772 10772 10772 10772 10771 10771 10770 10770 10769 10769 10768 10767 10767 10766 10766 10766 10766 10766 10765 10765 10764 10764 10764 10763 10763 10762 10762 10761 10760 10759 10758 10757 10755 10754 10753 10752 10751 10749 10747 10745 10743
10730 10731 10731 10732 10732 10734 10736 10738 10740 10742 10744 10746 10748 10750 10751 10753 10754 10755 10756 10757 10758 10758 10759 10760 10761 10762 10763 10764 10765 10766 10767 10768 10769 10769 10770 10770 10771 10771 10771 10771 10772 10771 10771 10771 10771 10771 10771 10771 10770 10770 10770 10770 10769 10769 10769 10768 10767 10767 10766 10766 10765 10765 10765 10765 10765 10764 10764 10763 10763 10762 10762 10761 10761 10760 10760 10759 10758 10757 10755 10754 10753 10752 10750 10749 10747 10745 10743 10740
10727 10728 10729 10729 10729 10731 10733 10734 10736 10738 10740 10742 10744 10746 10748 10749 10751 10752 10753 10754 10755 10755 10756 10757 10758 10759 10760 10761 10762 10764 10765 10765 10766 10766 10767 10767 10768 10769 10769 10769 10769 10769 10769 10769 10769 10769 10769 10769 10768 10768 10768 10768 10768 10767 10767 10766 10766 10765 10765 10764 10764 10764 10764 10763 10763 10763 10763 10762 10762 10761 10761 10760 10760 10759 10758 10757 10756 10755 10754 10752 10751 10750 10748 10746 10744 10742 10740 10737
10725 10726 10726 10726 10727 10728 10729 10730 10732 10734 10736 10739 10741 10743 10745 10746 10747 10749 10750 10751 10751 10752 10753 10754 10755 10756 10757 10758 10760 10761 10762 10762 10763 10764 10764 10765 10765 10766 10766 10767 10767 10767 10767 10767 10767 10767 10767 10766 10766 10766 10766 10766 10766 10766 10765 10765 10764 10764 10763 10763 10763 10762 10762 10762 10762 10762 10761 10761 10760 10759 10759 10758 10758 10757 10756 10755 10755 10754 10752 10751 10749 10747 10745 10743 10741 10739 10737 10735
10722 10723 10723 10723 10724 10724 10725 10727 10729 10731 10733 10735 10737 10739 10741 10742 10744 10745 10746 10747 10748 10749 10750 10751 10752 10753 10754 10755 10756 10757 10759 10760 10760 10761 10762 10762 10762 10763 10764 10764 10764 10764 10764 10764 10764 10764 10765 10764 10764 10764 10764 10764 10764 10764 10763 10763 10763 10762 10762 10762 10761 10761 10761 10761 10760 10760 10760 10759 10759 10758 10757 10757 10756 10755 10754 10753 10752 10751 10750 10748 10746 10744 10742 10740 10738 10736 10734 10732
10719 10720 10720 10720 10720 10721 10722 10723 10726 10728 10730 10732 10733 10735 10737 10738 10740 10741 10743 10744 10745 10746 10747 10748 10749 10750 10751 10752 10753 10754 10756 10757 10758 10759 10759 10759 10760 10760 10761 10761 10761 10761 10762 10762 10762 10762 10762 10762 10762 10762 10762 10762 10762 10762 10761 10761 10761 10760 10760 10760 10760 10760 10759 10759 10759 10758 10758 10757 10757 10756 10755 10755 10754 10752 10751 10750 10749 10748 10746 10745 10743 10741 10739 10737 10735 10733 10731 10728
10716 10716 10716 10717 10717 10718 10718 10720 10722 10724 10726 10728 10730 10731 10733 10734 10736 10738 10739 10740 10741 10743 10744 10745 10746 10746 10747 10749 10751 10752 10753 10754 10755 10755 10755 10756 10757 10758 10759 10759 10759 10759 10759 10759 10759 10759 10759 10759 10759 10760 10760 10760 10760 10760 10759 10759 10759 10759 10758 10758 10758 10758 10757 10757 10757 10756 10756 10755 10755 10754 10753 10752 10751 10750 10749 10748 10746 10745 10743 10742 10740 10738 10736 10734 10732 10730 10727 10725
10712 10712 10713 10714 10715 10715 10715 10717 10718 10720 10723 10725 10727 10728 10729 10731 10732 10734 10735 10737 10738 10740 10741 10742 10742 10743 10745 10747 10748 10749 10749 10750 10751 10752 10752 10753 10754 10755 10756 10756 10756 10756 10756 10756 10756 10756 10757 10756 10756 10757 10757 10757 10757 10757 10757 10757 10757 10757 10756 10756 10756 10756 10755 10755 10755 10755 10754 10753 10753 10753 10751 10750 10749 10747 10746 10745 10743 10742 10740 10738 10736 10734 10732 10731 10728 10726 10724 10721
10708 10709 10710 10711 10712 10712 10712 10713 10715 10717 10720 10722 10723 10723 10725 10726 10728 10730 10732 10734 10735 10736 10738 10738 10738 10741 10743 10744 10745 10745 10745 10746 10747 10748 10749 10750 10751 10752 10752 10753 10753 10753 10753 10753 10753 10754 10754 10753 10753 10754 10754 10754 10755 10755 10755 10755 10755 10754 10754 10754 10753 10753 10753 10753 10753 10752 10752 10751 10751 10750 10748 10748 10747 10745 10743 10742 10740 10738 10737 10735 10733 10731 10729 10727 10725 10723 10720 10718
10704 10705 10707 10708 10709 10709 10710 10711 10712 10714 10716 10718 10718 10718 10720 10722 10724 10726 10729 10731 10732 10733 10734 10734 10735 10738 10739 10740 10741 10740 10740 10743 10744 10745 10746 10747 10748 10749 10749 10750 10750 10749 10750 10750 10750 10751 10751 10750 10750 10751 10752 10751 10751 10752 10752 10752 10752 10752 10752 10751 10750 10751 10751 10750 10750 10750 10749 10749 10748 10747 10745 10745 10744 10743 10741 10740 10738 10735 10734 10731 10729 10728 10726 10724 10722 10720 10717 10714
10701 10702 10704 10705 10706 10707 10707 10708 10709 10711 10712 10713 10713 10714 10716 10718 10720 10723 10726 10727 10727 10728 10729 10730 10732 10734 10736 10736 10736 10736 10737 10740 10741 10741 10743 10744 10745 10745 10746 10747 10746 10746 10747 10747 10747 10748 10748 10747 10747 10748 10749 10748 10748 10749 10749 10749 10750 10750 10748 10747 10748 10748 10748 10747 10747 10747 10746 10746 10745 10744 10742 10741 10741 10740 10738 10737 10735 10733 10731 10729 10727 10725 10723 10721 10719 10716 10714 10711
10697 10699 10701 10702 10703 10704 10704 10705 10706 10707 10708 10709 10709 10711 10713 10715 10717 10720 10721 10722 10722 10723 10724 10727 10729 10730 10731 10731 10731 10732 10735 10737 10737 10737 10739 10740 10741 10742 10743 10743 10743 10744 10744 10744 10744 10744 10744 10744 10744 10745 10746 10744 10744 10746 10746 10747 10748 10746 10743 10744 10746 10745 10744 10744 10744 10743 10743 10742 10741 10740 10739 10738 10738 10736 10735 10733 10732 10730 10728 10726 10724 10722 10720 10717 10715 10713 10710 10707